Location: Kershaw
(34.5481°N, 80.5823°W)
Time: 07:08:43
(UTC+00:00)

Explorer 7 - Pass Details

Date: 04 October 2022
Orbit: 481 x 665 km, 50.3° (Epoch: 28 November)

Event Time Altitude Azimuth Distance (km) Brightness Sun altitude
Rises 12:58:23 0° 177° (S) 2,942 10.8 19.1°
Reaches altitude 10° 13:02:15 10° 145° (SE) 2,063 10.8 19.8°
Maximum altitude 13:03:54 12° 124° (SE) 1,959 11.6 20.1°
Drops below altitude 10° 13:05:35 10° 104° (ESE) 2,080 11.9 20.4°
Sets 13:09:30 0° 73° (ENE) 3,000 11.4 21.2°
